PHJZD EHRD-EHRD

Flight info

Callsign PHJZD
Flight time 0h 1m
Altitude 1500
Route VFR
Aircraft DA40/L-V/N

Departure

Time 2026-05-07 17:54
Airport Rotterdam The Hague Airport (EHRD)

Arrival

Time 2026-05-07 17:55
Airport Rotterdam The Hague Airport (EHRD)
Time Latitude Longitude Altitude Speed Heading
2026-05-07 17:45 51.94830 4.43696 -5 ft 0 kts 183°
2026-05-07 17:47 51.94823 4.43700 -5 ft 6 kts 129°
2026-05-07 17:47 51.94862 4.43805 -5 ft 13 kts 45°
2026-05-07 17:47 51.94933 4.43836 -5 ft 8 kts 330°
2026-05-07 17:47 51.94948 4.43821 -5 ft 0 kts 323°
2026-05-07 17:48 51.95001 4.43765 -5 ft 19 kts 329°
2026-05-07 17:48 51.95153 4.43607 -5 ft 30 kts 327°
2026-05-07 17:48 51.95269 4.43464 -5 ft 6 kts 263°
2026-05-07 17:48 51.95222 4.43343 -5 ft 23 kts 239°
2026-05-07 17:49 51.95149 4.43148 -5 ft 16 kts 270°
2026-05-07 17:49 51.95194 4.43101 -5 ft 0 kts 33°
2026-05-07 17:50 51.95222 4.43100 -5 ft 8 kts
2026-05-07 17:50 51.95307 4.43113 -4 ft 17 kts 26°
2026-05-07 17:50 51.95428 4.43376 -6 ft 55 kts 56°
2026-05-07 17:51 51.95712 4.44109 95 ft 89 kts 59°
2026-05-07 17:51 51.96040 4.44990 394 ft 93 kts 33°
2026-05-07 17:51 51.96629 4.44760 498 ft 103 kts 312°
2026-05-07 17:51 51.96626 4.43579 545 ft 120 kts 242°
2026-05-07 17:52 51.96166 4.42372 530 ft 129 kts 257°
2026-05-07 17:52 51.96479 4.41170 515 ft 125 kts 339°
2026-05-07 17:52 51.97246 4.41591 445 ft 135 kts 61°
2026-05-07 17:52 51.97040 4.42968 495 ft 140 kts 145°
2026-05-07 17:53 51.96174 4.42668 445 ft 143 kts 237°
2026-05-07 17:53 51.95647 4.41307 486 ft 142 kts 243°
2026-05-07 17:53 51.95115 4.39928 448 ft 147 kts 237°
2026-05-07 17:53 51.94391 4.38929 584 ft 137 kts 191°
2026-05-07 17:54 51.93794 4.39680 713 ft 114 kts 69°
2026-05-07 17:54 51.94387 4.40561 458 ft 117 kts 54°
2026-05-07 17:54 51.94741 4.41656 223 ft 100 kts 57°
2026-05-07 17:54 51.95093 4.42533 97 ft 88 kts 52°
2026-05-07 17:55 51.95419 4.43344 3 ft 81 kts 52°
2026-05-07 17:55 51.95656 4.43937 -5 ft 48 kts 55°
2026-05-07 17:55 51.95889 4.44525 11 ft 82 kts 56°
2026-05-07 17:55 51.96200 4.45298 350 ft 83 kts 34°
2026-05-07 17:56 51.96666 4.44862 490 ft 104 kts 287°
2026-05-07 17:56 51.96590 4.43594 477 ft 129 kts 238°
2026-05-07 17:56 51.96017 4.42372 424 ft 137 kts 242°
2026-05-07 17:56 51.95566 4.41069 423 ft 126 kts 245°
2026-05-07 17:57 51.95064 4.40028 302 ft 110 kts 198°
2026-05-07 17:57 51.94664 4.40218 277 ft 90 kts 126°
2026-05-07 17:57 51.94699 4.41510 210 ft 97 kts 53°
2026-05-07 17:57 51.95052 4.42432 111 ft 95 kts 55°
2026-05-07 17:58 51.95397 4.43299 0 ft 84 kts 54°
2026-05-07 17:58 51.95635 4.43883 -5 ft 51 kts 53°
2026-05-07 17:58 51.95878 4.44509 7 ft 84 kts 56°
2026-05-07 17:58 51.96171 4.45345 401 ft 75 kts 62°
2026-05-07 17:59 51.96411 4.46190 646 ft 91 kts 60°
2026-05-07 17:59 51.96717 4.47089 1009 ft 90 kts 62°
2026-05-07 17:59 51.96976 4.48002 1385 ft 87 kts 65°
2026-05-07 17:59 51.97254 4.48878 1732 ft 88 kts 59°
2026-05-07 18:00 51.97619 4.49652 2086 ft 88 kts 52°
2026-05-07 18:00 51.97914 4.50518 2413 ft 89 kts 87°
2026-05-07 18:00 51.97577 4.51342 2722 ft 99 kts 159°
2026-05-07 18:00 51.96862 4.51261 3007 ft 109 kts 182°
2026-05-07 18:01 51.96004 4.51142 3003 ft 136 kts 182°
2026-05-07 18:01 51.95002 4.51014 3003 ft 151 kts 182°
2026-05-07 18:01 51.93923 4.50878 2999 ft 159 kts 182°
2026-05-07 18:01 51.92804 4.50743 2995 ft 163 kts 182°
2026-05-07 18:02 51.90575 4.50959 2986 ft 162 kts 147°
2026-05-07 18:02 51.89905 4.52367 2986 ft 161 kts 107°
2026-05-07 18:02 51.89975 4.54130 2985 ft 159 kts 68°
2026-05-07 18:03 51.90706 4.55418 2989 ft 159 kts 31°
2026-05-07 18:03 51.91791 4.55696 2992 ft 163 kts 352°
2026-05-07 18:03 51.92786 4.54819 2997 ft 165 kts 321°
2026-05-07 18:03 51.93643 4.53568 2999 ft 166 kts 319°
2026-05-07 18:04 51.94489 4.52305 3000 ft 165 kts 319°
2026-05-07 18:04 51.95338 4.51049 2998 ft 165 kts 319°
2026-05-07 18:04 51.96188 4.49795 2995 ft 165 kts 319°
2026-05-07 18:04 51.97034 4.48544 2996 ft 165 kts 319°
2026-05-07 18:05 51.97706 4.47048 2986 ft 168 kts 288°
2026-05-07 18:05 51.97660 4.45193 2988 ft 167 kts 250°
2026-05-07 18:05 51.97118 4.43582 2987 ft 165 kts 226°
2026-05-07 18:05 51.96261 4.42376 2997 ft 163 kts 216°
2026-05-07 18:06 51.95423 4.41147 2993 ft 163 kts 229°
2026-05-07 18:06 51.94834 4.39579 2997 ft 163 kts 240°
2026-05-07 18:06 51.94317 4.37948 2997 ft 162 kts 242°
2026-05-07 18:06 51.93816 4.36307 2996 ft 162 kts 242°
2026-05-07 18:07 51.93321 4.34665 2995 ft 162 kts 242°
2026-05-07 18:07 51.92827 4.33023 2995 ft 162 kts 243°
2026-05-07 18:07 51.92334 4.31383 2994 ft 162 kts 242°
2026-05-07 18:07 51.91839 4.29742 2998 ft 162 kts 242°
2026-05-07 18:08 51.91341 4.28091 2996 ft 164 kts 242°
2026-05-07 18:08 51.90839 4.26430 2998 ft 164 kts 242°
2026-05-07 18:08 51.90336 4.24764 2995 ft 164 kts 242°
2026-05-07 18:08 51.89835 4.23105 2993 ft 163 kts 242°
2026-05-07 18:09 51.89337 4.21453 2990 ft 163 kts 241°
2026-05-07 18:09 51.88841 4.19809 2989 ft 162 kts 242°
2026-05-07 18:09 51.88313 4.18203 2984 ft 161 kts 230°
2026-05-07 18:09 51.87407 4.17291 2763 ft 155 kts 189°
2026-05-07 18:10 51.86364 4.17586 2424 ft 154 kts 146°
2026-05-07 18:10 51.85735 4.18921 2110 ft 151 kts 104°
2026-05-07 18:10 51.85862 4.20505 1990 ft 137 kts 58°
2026-05-07 18:10 51.86537 4.21521 1994 ft 131 kts 48°
2026-05-07 18:11 51.87098 4.22680 1997 ft 131 kts 54°
2026-05-07 18:11 51.87447 4.23476 1998 ft 131 kts 55°
2026-05-07 18:11 51.88130 4.25110 1993 ft 131 kts 57°
2026-05-07 18:11 51.88626 4.26329 1998 ft 130 kts 57°
2026-05-07 18:12 51.89119 4.27551 1997 ft 129 kts 57°
2026-05-07 18:12 51.89609 4.28768 1998 ft 129 kts 57°
2026-05-07 18:12 51.90107 4.30005 1913 ft 135 kts 57°
2026-05-07 18:12 51.90453 4.30867 1809 ft 140 kts 57°
2026-05-07 18:13 51.90981 4.32183 1622 ft 138 kts 57°
2026-05-07 18:13 51.91498 4.33469 1441 ft 135 kts 57°
2026-05-07 18:13 51.92004 4.34730 1260 ft 131 kts 57°
2026-05-07 18:13 51.92493 4.35948 1077 ft 127 kts 56°
2026-05-07 18:14 51.92953 4.37093 919 ft 117 kts 56°
2026-05-07 18:14 51.93385 4.38170 726 ft 112 kts 55°
2026-05-07 18:14 51.93776 4.39144 548 ft 91 kts 53°
2026-05-07 18:14 51.94083 4.39995 386 ft 88 kts 55°
2026-05-07 18:15 51.94404 4.40813 291 ft 86 kts 51°
2026-05-07 18:15 51.94731 4.41616 217 ft 86 kts 53°
2026-05-07 18:15 51.95056 4.42441 112 ft 87 kts 53°
2026-05-07 18:15 51.95383 4.43251 21 ft 84 kts 53°
2026-05-07 18:16 51.95649 4.43914 -5 ft 54 kts 57°
2026-05-07 18:16 51.95828 4.44372 -6 ft 39 kts 58°
2026-05-07 18:16 51.95914 4.44646 -6 ft 15 kts 122°
2026-05-07 18:16 51.95840 4.44747 -5 ft 13 kts 148°
2026-05-07 18:17 51.95783 4.44746 -5 ft 7 kts 225°
2026-05-07 18:17 51.95752 4.44674 -5 ft 11 kts 237°
2026-05-07 18:17 51.95700 4.44542 -5 ft 17 kts 238°
2026-05-07 18:17 51.95633 4.44376 -5 ft 17 kts 238°
2026-05-07 18:18 51.95569 4.44216 -5 ft 17 kts 237°
2026-05-07 18:18 51.95506 4.44061 -5 ft 16 kts 236°
2026-05-07 18:18 51.95445 4.43908 -5 ft 16 kts 232°
2026-05-07 18:18 51.95384 4.43754 -5 ft 16 kts 238°
2026-05-07 18:19 51.95323 4.43602 -5 ft 16 kts 236°
2026-05-07 18:19 51.95297 4.43538 -5 ft 0 kts 238°
2026-05-07 18:20 51.95282 4.43513 -5 ft 8 kts 216°
2026-05-07 18:20 51.95197 4.43559 -5 ft 18 kts 148°
2026-05-07 18:20 51.95074 4.43689 -5 ft 23 kts 148°
2026-05-07 18:20 51.94945 4.43825 -5 ft 18 kts 149°
2026-05-07 18:21 51.94868 4.43811 -5 ft 12 kts 236°
2026-05-07 18:21 51.94845 4.43706 -5 ft 3 kts 234°
2026-05-07 18:21 51.94845 4.43705 -5 ft 0 kts 233°